TimeCST,TemperatureF,Dew PointF,Humidity,Sea Level PressureIn,VisibilityMPH,Wind Direction,Wind SpeedMPH,Gust SpeedMPH,PrecipitationIn,Events,Conditions,WindDirDegrees,DateUTC
12:58 AM,46.9,44.1,90,30.10,8.0,Calm,Calm,-,N/A,,Clear,0,2012-11-21 06:58:00
1:58 AM,46.9,43.0,86,30.09,10.0,Calm,Calm,-,0.00,,Clear,0,2012-11-21 07:58:00
2:58 AM,44.1,42.1,93,30.09,9.0,Calm,Calm,-,N/A,,Clear,0,2012-11-21 08:58:00
3:58 AM,44.1,42.1,93,30.10,7.0,Calm,Calm,-,N/A,,Clear,0,2012-11-21 09:58:00
4:58 AM,44.1,42.1,93,30.11,5.0,Calm,Calm,-,N/A,,Overcast,0,2012-11-21 10:58:00
5:58 AM,43.0,41.0,93,30.12,2.5,Calm,Calm,-,N/A,,Clear,0,2012-11-21 11:58:00
6:08 AM,42.8,39.2,87,30.13,3.0,Calm,Calm,-,N/A,,Clear,0,2012-11-21 12:08:00
6:16 AM,42.8,41.0,93,30.13,2.5,Calm,Calm,-,N/A,,Clear,0,2012-11-21 12:16:00
6:25 AM,42.8,39.2,87,30.13,1.8,Calm,Calm,-,N/A,,Clear,0,2012-11-21 12:25:00
6:29 AM,42.8,39.2,87,30.13,2.0,Calm,Calm,-,N/A,,Clear,0,2012-11-21 12:29:00
6:37 AM,42.8,39.2,87,30.13,3.0,Calm,Calm,-,N/A,,Clear,0,2012-11-21 12:37:00
6:58 AM,45.0,42.1,90,30.14,4.0,Calm,Calm,-,0.00,Rain,Light Rain,0,2012-11-21 12:58:00
7:58 AM,55.0,48.9,80,30.14,10.0,Calm,Calm,-,0.00,,Clear,0,2012-11-21 13:58:00
8:58 AM,61.0,48.0,62,30.15,10.0,Variable,3.5,-,N/A,,Clear,0,2012-11-21 14:58:00
9:58 AM,64.9,48.9,56,30.15,10.0,NNW,4.6,-,N/A,,Clear,340,2012-11-21 15:58:00
10:58 AM,70.0,48.9,47,30.14,10.0,ENE,8.1,-,N/A,,Clear,60,2012-11-21 16:58:00
11:58 AM,73.0,46.9,39,30.11,10.0,Variable,3.5,-,N/A,,Clear,0,2012-11-21 17:58:00
12:58 PM,73.0,45.0,37,30.09,10.0,Calm,Calm,-,N/A,,Mostly Cloudy,0,2012-11-21 18:58:00
1:58 PM,72.0,45.0,38,30.08,10.0,Calm,Calm,-,N/A,,Partly Cloudy,0,2012-11-21 19:58:00
2:58 PM,73.0,45.0,37,30.08,10.0,Variable,3.5,-,N/A,,Clear,0,2012-11-21 20:58:00
3:58 PM,68.0,46.9,47,30.08,10.0,Calm,Calm,-,N/A,,Clear,0,2012-11-21 21:58:00
4:58 PM,57.9,48.9,72,30.10,10.0,Calm,Calm,-,N/A,,Clear,0,2012-11-21 22:58:00
5:58 PM,53.1,46.9,80,30.11,10.0,Calm,Calm,-,N/A,,Clear,0,2012-11-21 23:58:00
6:58 PM,52.0,46.9,83,30.13,10.0,Calm,Calm,-,N/A,,Clear,0,2012-11-22 00:58:00
7:58 PM,48.0,45.0,89,30.14,8.0,Calm,Calm,-,N/A,,Clear,0,2012-11-22 01:58:00
8:58 PM,46.9,44.1,90,30.15,2.5,Calm,Calm,-,N/A,,Clear,0,2012-11-22 02:58:00
9:17 PM,48.2,44.6,87,30.15,3.0,Calm,Calm,-,N/A,,Clear,0,2012-11-22 03:17:00
9:31 PM,46.4,44.6,93,30.15,2.5,Calm,Calm,-,N/A,,Clear,0,2012-11-22 03:31:00
9:58 PM,46.0,43.0,89,30.15,2.0,Calm,Calm,-,N/A,,Clear,0,2012-11-22 03:58:00
10:58 PM,45.0,43.0,93,30.16,2.0,Calm,Calm,-,N/A,,Clear,0,2012-11-22 04:58:00
11:49 PM,44.6,42.8,93,30.16,1.8,Calm,Calm,-,N/A,,Clear,0,2012-11-22 05:49:00
11:58 PM,44.1,42.1,93,30.16,2.0,Calm,Calm,-,N/A,,Clear,0,2012-11-22 05:58:00